Regional Weather Roundup
Issued by NWS

Home | Current Version | Previous Version | Text Only | Print | Product List | Glossary On
Versions: 1 2 3 4 5 6 7 8 9 10 11 12 13 14 15 16 17 18 19 20 21 22 23 24 25 26 27
000
ASUS43 KMPX 101510
RWRMN
WEATHER ROUNDUP FOR MINNESOTA
NATIONAL WEATHER SERVICE TWIN CITIES/CHANHASSEN MN
1000 AM CDT MON MAY 10 2021


NOTE: "FAIR" INDICATES FEW OR NO CLOUDS BELOW 12,000 FEET WITH NO
SIGNIFICANT WEATHER AND/OR OBSTRUCTIONS TO VISIBILITY. N/A MEANS
CURRENT SKY AND/OR WEATHER CONDITIONS ARE NOT AVAILABLE.

MNZ060>063-068>070-101600-
   Twin Cities Metro

CITY           SKY/WX    TMP DP  RH WIND       PRES   REMARKS
TWIN CITIES    MOSUNNY   48  30  49 VRB3      30.22S
ST PAUL        MOSUNNY   49  29  46 NE6       30.23S
CRYSTAL        MOSUNNY   48  27  44 N7        30.21R
BLAINE         MOSUNNY   48  27  43 NE7       30.22R
LAKEVILLE      MOSUNNY   46  28  49 NE9       30.21R
EDEN PRAIRIE   MOSUNNY   47  32  56 N9        30.20S
SOUTH ST PAUL  MOSUNNY   46  27  46 NE7       30.22S
$$
MNZ001>005-007-008-013>017-022>024-027-028-101600-
   Northwest Minnesota

CITY           SKY/WX    TMP DP  RH WIND       PRES   REMARKS
BEMIDJI        PTSUNNY   44  22  42 NE5       30.28R
HALLOCK        MOSUNNY   48  19  32 N7G16     30.32S
ROSEAU           N/A     48 N/A N/A E8        30.32S
WARROAD        SUNNY     45  28  53 E10       30.34R
THIEF RVR FALL CLOUDY    44  21  40 NE10G16   30.32S
CROOKSTON      SUNNY     45  18  33 NE9       30.31S
FOSSTON        CLOUDY    43  19  39 NE6       30.30R
DETROIT LAKES  CLOUDY    46  23  39 NE10G16   30.27R
MOORHEAD       SUNNY     48  12  23 N12G20    30.29S
PARK RAPIDS    CLOUDY    43  23  45 VRB6      30.26R
MAHNOMEN       PTSUNNY   46  23  39 E10       30.28S
$$
MNZ006-009>011-018-025>026-101600-
   North Central Minnesota

CITY           SKY/WX    TMP DP  RH WIND       PRES   REMARKS
BAUDETTE       MOSUNNY   45  21  38 N6        30.32S
INTL FALLS     MOSUNNY   44  22  41 N10       30.30S
WASKISH        SUNNY     45  21  39 E6        30.30S
BIG FORK       MOSUNNY   43  25  49 N6        30.32S
LONGVILLE      MOSUNNY   45  23  42 N6        30.26S
GRAND RAPIDS   CLOUDY    43  26  51 VRB6      30.28S
CRANE LAKE     SUNNY     43  25  49 N6        30.31S
ORR            MOSUNNY   45  21  39 N5        30.26S
COOK           MOSUNNY   45  21  39 N3        30.26S
WALKER         CLOUDY    42  27  57 CALM      30.27S
$$
MNZ012-019>021-037-101600-
   Northeast Minnesota

CITY           SKY/WX    TMP DP  RH WIND       PRES   REMARKS
DULUTH         PTSUNNY   43  26  51 CALM      30.24S
ELY            PTSUNNY   41  21  45 NE7       30.25S
HIBBING        PTSUNNY   43  23  45 N9        30.25S
EVELETH        PTSUNNY   44  22  41 NE7       30.26S
DULUTH HARBOR  MOSUNNY   45  28  53 E7        30.28S
TWO HARBORS    CLOUDY    45  27  49 E12       30.24S
SILVER BAY     CLOUDY    43  25  49 S5        30.24S
GRAND MARAIS     N/A     45  26  47 VRB6      30.25R
G MARAIS ARPRT CLOUDY    37  23  56 NW8       30.22R
$$
MNZ029>031-032-039>041-046>048-054>057-064-101600-
   West Central Minnesota

CITY           SKY/WX    TMP DP  RH WIND       PRES   REMARKS
FERGUS FALLS   PTSUNNY   46  27  46 E6        30.23R
WHEATON        CLOUDY    46  27  46 NE7       30.28R
MORRIS         MOSUNNY   48  19  32 E9        30.25S
ALEXANDRIA     CLOUDY    45  26  47 NE10      30.25R
ELBOW LAKE     CLOUDY    45  26  47 E6        30.26S
WADENA         CLOUDY    45  27  49 E7        30.26R
GLENWOOD       MOSUNNY   46  27  46 NE13      30.24R
APPLETON       MOSUNNY   52  27  37 E7        30.24R
BENSON         PTSUNNY   48  28  46 E6        30.25R
ORTONVILLE     MOSUNNY   48  28  46 NE7       30.24S
MADISON        PTSUNNY   50  28  43 E9        30.25R
WILLMAR        FAIR      50  27  40 NE10G18   30.26R
$$
MNZ033>034-036-042>043-049>051-058-059-101600-
   Central Minnesota

CITY           SKY/WX    TMP DP  RH WIND       PRES   REMARKS
ST CLOUD       MOSUNNY   47  24  40 NE12G21   30.23S
SAUK CENTRE    CLOUDY    45  28  52 NE13      30.24S
PAYNESVILLE    SUNNY     46  30  53 E10G17    30.24R
AITKIN         PTSUNNY   45  28  53 CALM      30.25F
PINE RIVER     CLOUDY    45  25  45 E9        30.28S
BRAINERD       CLOUDY    47  23  38 NE8G16    30.25S
STAPLES        CLOUDY    46  23  39 NE3       30.25S
LONG PRAIRIE   CLOUDY    45  25  45 E7        30.25S
LITTLE FALLS   CLOUDY    46  16  29 NE7       30.25S
LITCHFIELD     MOSUNNY   48  30  49 NE10      30.23R
BUFFALO        MOSUNNY   47  26  43 MISG      30.24R
MAPLE LAKE     MOSUNNY   49  29  46 NE10      30.24R
HUTCHINSON     CLOUDY    46  32  59 NE10      30.23R
$$
MNZ037-044-045-052-053-101600-
   East Central Minnesota

CITY           SKY/WX    TMP DP  RH WIND       PRES   REMARKS
PRINCETON      SUNNY     48  27  43 NE7       30.24S
MORA           MOSUNNY   45  27  49 NE6       30.25S
CAMBRIDGE      SUNNY     48  28  46 N8        30.24S
RUSH CITY      MOSUNNY   46  25  43 NE7       30.24S
MOOSE LAKE     CLOUDY    43  28  56 E5        30.24S
HINCKLEY       CLOUDY    46  28  49 E6        30.25S
CLOQUET        CLOUDY    43  27  52 NE6       30.23F
$$
MNZ071>073-080-081-089-090-097-098-101600-
   Southwest Minnesota

CITY           SKY/WX    TMP DP  RH WIND       PRES   REMARKS
MONTEVIDEO     CLOUDY    48  25  40 E12       30.24R
GRANITE FALLS  CLOUDY    51  28  41 E8        30.24R
CANBY          SUNNY     49  30  48 NE8       30.24R
MARSHALL       SUNNY     48  29  47 E8        30.22R
REDWOOD FALLS  MOSUNNY   50  25  37 E12G21    30.21R
OLIVIA         SUNNY     48  28  46 NE10      30.21R
PIPESTONE      SUNNY     46  30  53 E9        30.18S
WINDOM         SUNNY     48  27  43 NE12      30.17R
WORTHINGTON    SUNNY     49  30  48 NE14      30.17R
JACKSON        SUNNY     50  28  43 NE9G17    30.17R
TRACY          SUNNY     50  24  36 E12       30.20R
SLAYTON        SUNNY     47  26  43 N9        30.20R
$$
MNZ065>067-074>077-082>085-091>093-101600-
   South Central Minnesota

CITY           SKY/WX    TMP DP  RH WIND       PRES   REMARKS
MANKATO        MOSUNNY   48  27  44 NE12      30.20R
NEW ULM        MOSUNNY   48  25  40 E14       30.19S
ST JAMES       SUNNY     48  27  43 E13       30.18R
FAIRMONT       SUNNY     50  27  40 NE15      30.17R
GLENCOE        CLOUDY    45  31  59 NE6       30.22R
FARIBAULT      CLOUDY    45  30  57 NE10      30.21R
OWATONNA       PTSUNNY   48  30  49 NE16G23   30.19R
WASECA         SUNNY     48  28  46 NE13G22   30.20R
ALBERT LEA     PTSUNNY   50  30  46 NE9       30.16R
$$
MNZ078>079-086>088-094>096-101600-
   Southeast Minnesota

CITY           SKY/WX    TMP DP  RH WIND       PRES   REMARKS
ROCHESTER      MOSUNNY   47  30  51 NE17      30.17R
RED WING       CLOUDY    45  27  49 NE10      30.20R
STANTON        CLOUDY    46  31  55 NE9       30.19S
DODGE CENTER   PTSUNNY   45  27  49 NE16      30.17R
WINONA         CLOUDY    43  32  65 E6        30.20F
AUSTIN         MOSUNNY   50  34  53 E13       30.15S
PRESTON        MOSUNNY   46  32  57 NE17G23   30.16S
$$
ABBREVIATIONS USED IN REMARKS
   TC - TEMPERATURES IN CELSIUS
  WCI - WIND CHILL INDEX
   HX - HEAT INDEX
  VSB - VISIBILITY
$$



USA.gov is the U.S. government's official web portal to all federal, state and local government web resources and services.